Regional Weather Roundup
Issued by NWS

Home | Current Version | Previous Version | Text Only | Print | Product List | Glossary Off
Versions: 1 2 3 4 5 6 7 8 9 10 11 12 13 14 15 16 17 18 19 20 21 22 23 24 25 26 27 28

000
ASUS45 KCYS 180910
RWRWY

WYOMING REGIONAL WEATHER ROUNDUP
NATIONAL WEATHER SERVICE CHEYENNE WY
300 AM MDT FRI APR 18 2014

NOTE:  "FAIR" INDICATES FEW OR NO CLOUDS BELOW 12,000 FEET
WITH NO SIGNIFICANT WEATHER AND/OR OBSTRUCTIONS TO VISIBILITY.

WYZ001-181000-
YELLOWSTONE NATIONAL PARK

CITY           SKY/WX    TMP DP  RH WIND       PRES   REMARKS
LK YELLOWSTONE   N/A     27  23  85 CALM      29.93S
W YELLOWSTONE  NOT AVBL

$$
WYZ002>013-054>058-071-098>099-181000-
NORTHERN WYOMING

CITY           SKY/WX    TMP DP  RH WIND       PRES   REMARKS
JACKSON        CLOUDY    39  28  65 CALM      29.92R
CODY           MOCLDY    45  27  49 S12       29.78F
GREYBULL       CLOUDY    45  31  58 CALM      29.77F
WORLAND        CLOUDY    42  32  67 SE8       29.77F
SHERIDAN       PTCLDY    35  30  82 W3        29.75F
BUFFALO        CLEAR     41  28  60 SW9       29.79F
GILLETTE       MOCLDY    42  35  76 S20       29.79F
HULETT         FAIR     N/A N/A N/A CALM      29.83
NEWCASTLE      FAIR      46  32  57 MISG      29.87

$$
WYZ014>020-022>026-101>103-181000-
CENTRAL WYOMING

CITY           SKY/WX    TMP DP  RH WIND       PRES   REMARKS
BIG PINEY      CLOUDY    35  24  64 E8        29.97F WCI  29
PINEDALE       CLOUDY    32  30  93 CALM      29.99S
DUBOIS         FAIR      34  21  60 N3        29.90F
LANDER         PTCLDY    46  23  40 VRB5      29.84F
RIVERTON       PTCLDY    41  23  48 S6        29.86F
CASPER         CLEAR     44  26  49 W9        29.87F
DOUGLAS        CLEAR     38  32  79 S9        29.89S WCI  31

$$
WYZ021-027>030-104>119-181000-
SOUTHERN WYOMING

CITY           SKY/WX    TMP DP  RH WIND       PRES   REMARKS
EVANSTON       MOCLDY    48  25  40 SW14      29.95F
KEMMERER       CLOUDY    37  27  65 N3        29.96F
FORT BRIDGER   FAIR      48  23  37 CALM      29.98F
ROCK SPRINGS   PTCLDY    43  20  39 S9        29.96F
DIXON          FAIR      34  25  71 SE3       30.06F
RAWLINS        MOCLDY    44  20  38 SW14      29.99S
SARATOGA       FAIR      41  23  48 S6        30.02F
LARAMIE        CLEAR     38  22  52 S14       30.02R WCI  30
CHEYENNE       PTCLDY    37  30  75 W12       29.99F WCI  29
TORRINGTON     PTCLDY    43  34  70 SE7       29.90F
PINE BLUFFS    FAIR      36  32  87 SW10      29.98S WCI  28

$$



USA.gov is the U.S. government's official web portal to all federal, state and local government web resources and services.